| time (UTC) | temp F | wind direction | speed knots | gust knots | rain 1hr in | rain 24hr in | rain mn in | humidity % | barometer mb |
| 20260507092705 | 58 | 118 | 5.2 | 8.7 | 0.00 | 0.00 | 0.00 | 47 | 1015.6 |
| 20260507092205 | 58 | 89 | 4.3 | 7.8 | 0.00 | 0.00 | 0.00 | 49 | 1015.6 |
| 20260507091705 | 58 | 71 | 4.3 | 7.0 | 0.00 | 0.00 | 0.00 | 49 | 1015.6 |
| 20260507091205 | 58 | 81 | 2.6 | 6.1 | 0.00 | 0.00 | 0.00 | 49 | 1015.6 |
| 20260507090705 | 58 | 63 | 5.2 | 10.4 | 0.00 | 0.00 | 0.00 | 49 | 1015.6 |
| 20260507085705 | 58 | 99 | 4.3 | 7.0 | 0.00 | 0.00 | 0.00 | 52 | 1015.5 |
| 20260507085205 | 57 | 77 | 4.3 | 7.8 | 0.00 | 0.00 | 0.00 | 56 | 1015.5 |
| 20260507084705 | 57 | 102 | 0.9 | 6.1 | 0.00 | 0.00 | 0.00 | 56 | 1015.4 |
| 20260507084205 | 56 | 145 | 4.3 | 7.8 | 0.00 | 0.00 | 0.00 | 59 | 1015.4 |
| 20260507082705 | 55 | 104 | 4.3 | 7.8 | 0.00 | 0.00 | 0.00 | 58 | 1015.3 |
| 20260507082205 | 55 | 102 | 3.5 | 7.8 | 0.00 | 0.00 | 0.00 | 63 | 1015.3 |
| 20260507081705 | 56 | 121 | 4.3 | 7.8 | 0.00 | 0.00 | 0.00 | 66 | 1015.2 |
| 20260507081205 | 55 | 90 | 4.3 | 10.4 | 0.00 | 0.00 | 0.00 | 67 | 1015.2 |
| 20260507080705 | 54 | 51 | 3.5 | 10.4 | 0.00 | 0.00 | 0.00 | 69 | 1015.1 |
| 20260507080205 | 54 | 94 | 3.5 | 5.2 | 0.00 | 0.00 | 0.00 | 69 | 1015.1 |
| 20260507075705 | 54 | 135 | 4.3 | 7.8 | 0.00 | 0.00 | 0.00 | 70 | 1015.1 |
| 20260507074705 | 54 | 114 | 3.5 | 7.0 | 0.00 | 0.00 | 0.00 | 71 | 1015.0 |
| 20260507073705 | 53 | 80 | 2.6 | 7.0 | 0.00 | 0.00 | 0.00 | 73 | 1014.9 |
| 20260507073205 | 53 | 120 | 3.5 | 7.8 | 0.00 | 0.00 | 0.00 | 72 | 1014.9 |
| 20260507072704 | 52 | 90 | 4.3 | 7.8 | 0.00 | 0.00 | 0.00 | 72 | 1015.0 |
| 20260507072205 | 52 | 109 | 2.6 | 7.8 | 0.00 | 0.00 | 0.00 | 76 | 1015.0 |
| 20260507071705 | 52 | 127 | 3.5 | 6.1 | 0.00 | 0.00 | 0.00 | 75 | 1015.0 |
| 20260507070205 | 52 | 82 | 4.3 | 7.8 | 0.00 | 0.00 | 0.00 | 78 | 1014.9 |
| 20260507065705 | 51 | 99 | 4.3 | 7.0 | 0.00 | 0.00 | 0.00 | 78 | 1014.9 |
| 20260507065205 | 51 | 122 | 4.3 | 7.0 | 0.00 | 0.00 | 0.00 | 80 | 1014.9 |
| 20260507064704 | 51 | 83 | 2.6 | 7.8 | 0.00 | 0.00 | 0.00 | 80 | 1014.8 |
| 20260507063704 | 51 | 94 | 3.5 | 7.0 | 0.00 | 0.00 | 0.00 | 81 | 1014.8 |
| 20260507063205 | 50 | 82 | 2.6 | 7.0 | 0.00 | 0.00 | 0.00 | 82 | 1014.7 |
| 20260507062705 | 50 | 113 | 2.6 | 5.2 | 0.00 | 0.00 | 0.00 | 84 | 1014.7 |
| 20260507062205 | 50 | 96 | 1.7 | 5.2 | 0.00 | 0.00 | 0.00 | 85 | 1014.6 |
| 20260507061705 | 49 | 126 | 2.6 | 5.2 | 0.00 | 0.00 | 0.00 | 85 | 1014.5 |
| 20260507061205 | 49 | 92 | 2.6 | 6.1 | 0.00 | 0.00 | 0.00 | 86 | 1014.5 |
| 20260507060705 | 49 | 100 | 2.6 | 5.2 | 0.00 | 0.00 | 0.00 | 87 | 1014.5 |
| 20260507055704 | 48 | 91 | 3.5 | 6.1 | 0.00 | 0.00 | 0.00 | 89 | 1014.5 |
| 20260507055205 | 48 | 92 | 2.6 | 4.3 | 0.00 | 0.00 | 0.00 | 90 | 1014.4 |
| 20260507054704 | 47 | 91 | 3.5 | 5.2 | 0.00 | 0.00 | 0.00 | 91 | 1014.4 |
| 20260507054204 | 47 | 80 | 2.6 | 6.1 | 0.00 | 0.00 | 0.00 | 92 | 1014.4 |
| 20260507053704 | 46 | 92 | 1.7 | 2.6 | 0.00 | 0.00 | 0.00 | 93 | 1014.4 |
| 20260507053205 | 46 | 96 | 1.7 | 2.6 | 0.00 | 0.00 | 0.00 | 94 | 1014.3 |
| 20260507052205 | 45 | 96 | 0.9 | 2.6 | 0.00 | 0.00 | 0.00 | 95 | 1014.3 |
| 20260507051705 | 44 | 96 | 0.9 | 2.6 | 0.00 | 0.00 | 0.00 | 95 | 1014.3 |
| 20260507051205 | 44 | 96 | 1.7 | 2.6 | 0.00 | 0.00 | 0.00 | 96 | 1014.2 |
| 20260507050705 | 43 | 96 | 1.7 | 2.6 | 0.00 | 0.00 | 0.00 | 96 | 1014.2 |
| 20260507050205 | 43 | 99 | 1.7 | 2.6 | 0.00 | 0.00 | 0.00 | 96 | 1014.1 |
| 20260507045705 | 43 | 101 | 0.0 | 1.7 | 0.00 | 0.00 | 0.00 | 97 | 1014.1 |
| 20260507045205 | 42 | 101 | 1.7 | 2.6 | 0.00 | 0.00 | 0.00 | 97 | 1014.0 |
| 20260507044705 | 41 | 103 | 1.7 | 2.6 | 0.00 | 0.00 | 0.00 | 97 | 1014.0 |
| 20260507044205 | 41 | 106 | 1.7 | 2.6 | 0.00 | 0.00 | 0.00 | 97 | 1014.0 |
| 20260507043705 | 40 | 116 | 0.9 | 2.6 | 0.00 | 0.00 | 0.00 | 97 | 1013.9 |
| 20260507042205 | 37 | 117 | 0.0 | 0.0 | 0.00 | 0.00 | 0.00 | 95 | 1013.7 |
| 20260507041705 | 37 | 117 | 0.0 | 0.0 | 0.00 | 0.00 | 0.00 | 95 | 1013.7 |
| 20260507041205 | 37 | 117 | 0.0 | 0.0 | 0.00 | 0.00 | 0.00 | 95 | 1013.6 |
| 20260507040706 | 37 | 117 | 0.0 | 0.0 | 0.00 | 0.00 | 0.00 | 95 | 1013.6 |
| 20260507034705 | 37 | 117 | 0.0 | 0.0 | 0.00 | 0.00 | 0.00 | 94 | 1013.4 |
| 20260507034205 | 37 | 117 | 0.0 | 0.0 | 0.00 | 0.00 | 0.00 | 94 | 1013.4 |
| 20260507033706 | 37 | 117 | 0.0 | 0.0 | 0.00 | 0.00 | 0.00 | 94 | 1013.3 |
| 20260507032705 | 37 | 117 | 0.0 | 0.0 | 0.00 | 0.00 | 0.00 | 94 | 1013.3 |
| 20260507032204 | 37 | 117 | 0.0 | 0.0 | 0.00 | 0.00 | 0.00 | 94 | 1013.2 |
| 20260507031705 | 37 | 117 | 0.0 | 0.0 | 0.00 | 0.00 | 0.00 | 94 | 1013.2 |
| 20260507031205 | 37 | 117 | 0.0 | 0.0 | 0.00 | 0.00 | 0.00 | 94 | 1013.2 |
| 20260507030705 | 37 | 117 | 0.0 | 0.0 | 0.00 | 0.00 | 0.00 | 94 | 1013.1 |
| 20260507030205 | 37 | 117 | 0.0 | 0.0 | 0.00 | 0.00 | 0.00 | 94 | 1013.1 |
| 20260507025205 | 37 | 117 | 0.0 | 0.0 | 0.00 | 0.00 | 0.00 | 94 | 1013.0 |
| 20260507024205 | 37 | 117 | 0.0 | 0.0 | 0.00 | 0.00 | 0.00 | 94 | 1013.0 |
| 20260507023705 | 38 | 117 | 0.0 | 0.0 | 0.00 | 0.00 | 0.00 | 94 | 1012.9 |
| 20260507022705 | 38 | 117 | 0.0 | 0.0 | 0.00 | 0.00 | 0.00 | 94 | 1012.9 |
| 20260507022205 | 38 | 117 | 0.0 | 0.0 | 0.00 | 0.00 | 0.00 | 94 | 1012.9 |
| 20260507021705 | 38 | 117 | 0.0 | 0.0 | 0.00 | 0.00 | 0.00 | 94 | 1012.8 |
| 20260507021205 | 38 | 117 | 0.0 | 0.0 | 0.00 | 0.00 | 0.00 | 93 | 1012.8 |
| 20260507020705 | 38 | 117 | 0.0 | 0.0 | 0.00 | 0.00 | 0.00 | 94 | 1012.7 |
| 20260507020204 | 38 | 117 | 0.0 | 0.0 | 0.00 | 0.00 | 0.00 | 93 | 1012.8 |
| 20260507015705 | 38 | 117 | 0.0 | 0.0 | 0.00 | 0.00 | 0.00 | 93 | 1012.7 |
| 20260507015205 | 38 | 117 | 0.0 | 0.0 | 0.00 | 0.00 | 0.00 | 93 | 1012.7 |
| 20260507014705 | 38 | 117 | 0.0 | 0.0 | 0.00 | 0.00 | 0.00 | 93 | 1012.7 |
| 20260507014205 | 39 | 117 | 0.0 | 0.0 | 0.00 | 0.00 | 0.00 | 93 | 1012.6 |
| 20260507013205 | 39 | 117 | 0.0 | 0.0 | 0.00 | 0.00 | 0.00 | 93 | 1012.5 |
| 20260506233205 | 42 | 118 | 0.0 | 0.0 | 0.00 | 0.00 | 0.00 | 91 | 1012.3 |
| 20260506225204 | 43 | 118 | 0.0 | 0.0 | 0.00 | 0.00 | 0.00 | 89 | 1012.1 |
| 20260506224205 | 44 | 118 | 0.9 | 1.7 | 0.00 | 0.00 | 0.00 | 88 | 1012.0 |
| 20260506223705 | 44 | 118 | 0.9 | 1.7 | 0.00 | 0.00 | 0.00 | 88 | 1012.0 |
| 20260506223205 | 44 | 118 | 0.9 | 1.7 | 0.00 | 0.00 | 0.00 | 88 | 1012.1 |
| 20260506222705 | 44 | 118 | 0.9 | 2.6 | 0.00 | 0.00 | 0.00 | 88 | 1012.0 |
| 20260506222205 | 45 | 118 | 1.7 | 2.6 | 0.00 | 0.00 | 0.00 | 88 | 1012.0 |
| 20260506221705 | 45 | 118 | 1.7 | 2.6 | 0.00 | 0.00 | 0.00 | 88 | 1012.0 |
| 20260506221205 | 45 | 118 | 1.7 | 2.6 | 0.00 | 0.00 | 0.00 | 87 | 1012.0 |
| 20260506220205 | 45 | 119 | 1.7 | 5.2 | 0.00 | 0.00 | 0.00 | 87 | 1012.0 |
| 20260506215705 | 45 | 133 | 1.7 | 4.3 | 0.00 | 0.00 | 0.00 | 87 | 1011.9 |
| 20260506215205 | 45 | 126 | 2.6 | 6.1 | 0.00 | 0.00 | 0.00 | 88 | 1011.9 |
| 20260506214705 | 45 | 125 | 3.5 | 6.1 | 0.00 | 0.00 | 0.00 | 88 | 1011.8 |
| 20260506214204 | 45 | 113 | 2.6 | 6.1 | 0.00 | 0.00 | 0.00 | 88 | 1011.9 |
| 20260506213705 | 46 | 104 | 2.6 | 4.3 | 0.00 | 0.00 | 0.00 | 88 | 1011.8 |
| 20260506213204 | 46 | 125 | 2.6 | 4.3 | 0.00 | 0.00 | 0.00 | 87 | 1011.7 |
| 20260506212705 | 46 | 105 | 1.7 | 2.6 | 0.00 | 0.00 | 0.00 | 87 | 1011.7 |
| 20260506211705 | 46 | 104 | 1.7 | 2.6 | 0.00 | 0.00 | 0.00 | 87 | 1011.5 |
| 20260506211205 | 46 | 103 | 1.7 | 2.6 | 0.00 | 0.00 | 0.00 | 87 | 1011.5 |
| 20260506210705 | 46 | 97 | 1.7 | 2.6 | 0.00 | 0.00 | 0.00 | 86 | 1011.5 |
| 20260506210205 | 47 | 97 | 1.7 | 2.6 | 0.00 | 0.00 | 0.00 | 85 | 1011.5 |
| 20260506205705 | 47 | 96 | 1.7 | 2.6 | 0.00 | 0.00 | 0.00 | 84 | 1011.4 |
| 20260506205205 | 47 | 96 | 0.9 | 1.7 | 0.00 | 0.00 | 0.00 | 84 | 1011.4 |
| 20260506204705 | 47 | 96 | 0.9 | 1.7 | 0.00 | 0.00 | 0.00 | 83 | 1011.3 |
| 20260506204205 | 47 | 96 | 0.9 | 1.7 | 0.00 | 0.00 | 0.00 | 82 | 1011.3 |
| 20260506203704 | 47 | 96 | 0.9 | 1.7 | 0.00 | 0.00 | 0.00 | 81 | 1011.3 |
| 20260506202706 | 48 | 96 | 1.7 | 2.6 | 0.00 | 0.00 | 0.00 | 80 | 1011.2 |
| 20260506202205 | 48 | 96 | 1.7 | 2.6 | 0.00 | 0.00 | 0.00 | 79 | 1011.1 |
| 20260506201705 | 49 | 96 | 1.7 | 2.6 | 0.00 | 0.00 | 0.00 | 78 | 1011.1 |
| 20260506201205 | 49 | 96 | 1.7 | 2.6 | 0.00 | 0.00 | 0.00 | 77 | 1011.1 |
| 20260506200705 | 49 | 86 | 1.7 | 2.6 | 0.00 | 0.00 | 0.00 | 77 | 1011.0 |
| 20260506200204 | 49 | 84 | 1.7 | 2.6 | 0.00 | 0.00 | 0.00 | 76 | 1010.9 |
| 20260506195705 | 49 | 86 | 0.9 | 2.6 | 0.00 | 0.00 | 0.00 | 75 | 1011.0 |
| 20260506193705 | 51 | 86 | 1.7 | 2.6 | 0.00 | 0.00 | 0.00 | 73 | 1010.8 |
| 20260506193204 | 51 | 91 | 2.6 | 6.1 | 0.00 | 0.00 | 0.00 | 72 | 1010.8 |
| 20260506191704 | 52 | 92 | 1.7 | 2.6 | 0.00 | 0.00 | 0.00 | 70 | 1010.6 |
| 20260506191205 | 52 | 92 | 1.7 | 2.6 | 0.00 | 0.00 | 0.00 | 70 | 1010.5 |
| 20260506190705 | 52 | 95 | 1.7 | 2.6 | 0.00 | 0.00 | 0.00 | 69 | 1010.4 |
| 20260506190205 | 52 | 96 | 1.7 | 2.6 | 0.00 | 0.00 | 0.00 | 68 | 1010.4 |
| 20260506185705 | 53 | 94 | 1.7 | 2.6 | 0.00 | 0.00 | 0.00 | 68 | 1010.3 |
| 20260506185205 | 53 | 96 | 2.6 | 4.3 | 0.00 | 0.00 | 0.00 | 67 | 1010.3 |
| 20260506184704 | 53 | 78 | 2.6 | 4.3 | 0.00 | 0.00 | 0.00 | 67 | 1010.2 |
| 20260506184205 | 54 | 101 | 1.7 | 2.6 | 0.00 | 0.00 | 0.00 | 66 | 1010.1 |
| 20260506183704 | 54 | 101 | 1.7 | 2.6 | 0.00 | 0.00 | 0.00 | 66 | 1010.1 |
| 20260506183205 | 54 | 102 | 1.7 | 5.2 | 0.00 | 0.00 | 0.00 | 66 | 1010.1 |
| 20260506182705 | 54 | 96 | 1.7 | 7.0 | 0.00 | 0.00 | 0.00 | 65 | 1009.9 |
| 20260506182205 | 54 | 87 | 3.5 | 6.1 | 0.00 | 0.00 | 0.00 | 65 | 1010.0 |
| 20260506181704 | 54 | 86 | 2.6 | 6.1 | 0.00 | 0.00 | 0.00 | 65 | 1009.9 |
| 20260506180705 | 55 | 84 | 3.5 | 7.0 | 0.00 | 0.00 | 0.00 | 65 | 1009.9 |
| 20260506180204 | 55 | 100 | 3.5 | 6.1 | 0.00 | 0.00 | 0.00 | 66 | 1009.8 |
| 20260506175705 | 55 | 104 | 2.6 | 5.2 | 0.00 | 0.00 | 0.00 | 67 | 1009.8 |
| 20260506175205 | 55 | 117 | 2.6 | 7.0 | 0.00 | 0.00 | 0.00 | 67 | 1009.8 |
| 20260506174705 | 55 | 148 | 3.5 | 6.1 | 0.00 | 0.00 | 0.00 | 67 | 1009.8 |
| 20260506174204 | 55 | 102 | 4.3 | 7.8 | 0.00 | 0.00 | 0.00 | 66 | 1009.7 |
| 20260506173704 | 56 | 108 | 3.5 | 7.8 | 0.00 | 0.00 | 0.00 | 66 | 1009.7 |
| 20260506173205 | 56 | 115 | 4.3 | 7.0 | 0.00 | 0.00 | 0.00 | 64 | 1009.6 |
| 20260506172705 | 56 | 90 | 2.6 | 5.2 | 0.00 | 0.00 | 0.00 | 60 | 1009.6 |
| 20260506171204 | 57 | 74 | 3.5 | 7.8 | 0.00 | 0.00 | 0.00 | 53 | 1009.4 |
| 20260506170705 | 57 | 58 | 2.6 | 6.1 | 0.00 | 0.00 | 0.00 | 53 | 1009.4 |
| 20260506170205 | 57 | 39 | 4.3 | 7.8 | 0.00 | 0.00 | 0.00 | 52 | 1009.4 |
| 20260506165704 | 57 | 49 | 4.3 | 8.7 | 0.00 | 0.00 | 0.00 | 52 | 1009.3 |
| 20260506164705 | 58 | 70 | 3.5 | 7.0 | 0.00 | 0.00 | 0.00 | 50 | 1009.3 |
| 20260506164205 | 58 | 43 | 4.3 | 10.4 | 0.00 | 0.00 | 0.00 | 49 | 1009.3 |
| 20260506163704 | 58 | 54 | 2.6 | 10.4 | 0.00 | 0.00 | 0.00 | 50 | 1009.4 |
| 20260506163204 | 58 | 49 | 4.3 | 10.4 | 0.00 | 0.00 | 0.00 | 50 | 1009.4 |
| 20260506162705 | 58 | 72 | 4.3 | 10.4 | 0.00 | 0.00 | 0.00 | 49 | 1009.4 |
| 20260506162205 | 58 | 60 | 5.2 | 8.7 | 0.00 | 0.00 | 0.00 | 50 | 1009.5 |
| 20260506161704 | 58 | 78 | 4.3 | 7.8 | 0.00 | 0.00 | 0.00 | 50 | 1009.5 |
| 20260506160705 | 59 | 50 | 4.3 | 7.8 | 0.00 | 0.00 | 0.00 | 49 | 1009.5 |
| 20260506160205 | 59 | 49 | 5.2 | 11.3 | 0.00 | 0.00 | 0.00 | 49 | 1009.4 |
| 20260506154704 | 59 | 86 | 4.3 | 10.4 | 0.00 | 0.00 | 0.00 | 49 | 1009.4 |
| 20260506154204 | 59 | 60 | 5.2 | 8.7 | 0.00 | 0.00 | 0.00 | 48 | 1009.4 |
| 20260506153705 | 59 | 43 | 4.3 | 10.4 | 0.00 | 0.00 | 0.00 | 49 | 1009.4 |
| 20260506153204 | 59 | 64 | 4.3 | 7.0 | 0.00 | 0.00 | 0.00 | 47 | 1009.5 |
| 20260506152705 | 59 | 34 | 2.6 | 7.8 | 0.00 | 0.00 | 0.00 | 49 | 1009.4 |
| 20260506152205 | 59 | 66 | 6.1 | 10.4 | 0.00 | 0.00 | 0.00 | 49 | 1009.5 |
| 20260506151704 | 59 | 68 | 6.1 | 10.4 | 0.00 | 0.00 | 0.00 | 49 | 1009.4 |
| 20260506150706 | 60 | 47 | 5.2 | 11.3 | 0.00 | 0.00 | 0.00 | 48 | 1009.4 |
| 20260506145705 | 60 | 38 | 4.3 | 10.4 | 0.00 | 0.00 | 0.00 | 49 | 1009.5 |
| 20260506144705 | 59 | 66 | 4.3 | 10.4 | 0.00 | 0.00 | 0.00 | 50 | 1009.4 |
| 20260506144205 | 59 | 55 | 5.2 | 10.4 | 0.00 | 0.00 | 0.00 | 49 | 1009.4 |
| 20260506143205 | 59 | 69 | 5.2 | 12.2 | 0.00 | 0.00 | 0.00 | 49 | 1009.4 |
| 20260506142705 | 59 | 39 | 6.1 | 10.4 | 0.00 | 0.00 | 0.00 | 50 | 1009.4 |
| 20260506142204 | 59 | 59 | 5.2 | 13.0 | 0.00 | 0.00 | 0.00 | 51 | 1009.4 |
| 20260506141705 | 59 | 55 | 6.1 | 11.3 | 0.00 | 0.00 | 0.00 | 50 | 1009.4 |
| 20260506141204 | 59 | 45 | 6.1 | 10.4 | 0.00 | 0.00 | 0.00 | 50 | 1009.5 |
| 20260506140705 | 59 | 60 | 6.1 | 11.3 | 0.00 | 0.00 | 0.00 | 50 | 1009.4 |
| 20260506140205 | 60 | 24 | 4.3 | 10.4 | 0.00 | 0.00 | 0.00 | 49 | 1009.5 |
| 20260506135705 | 60 | 48 | 6.1 | 12.2 | 0.00 | 0.00 | 0.00 | 49 | 1009.5 |
| 20260506135205 | 61 | 65 | 4.3 | 10.4 | 0.00 | 0.00 | 0.00 | 48 | 1009.5 |
| 20260506134705 | 61 | 47 | 5.2 | 10.4 | 0.00 | 0.00 | 0.00 | 49 | 1009.4 |
| 20260506134205 | 61 | 35 | 4.3 | 8.7 | 0.00 | 0.00 | 0.00 | 50 | 1009.4 |
| 20260506133705 | 61 | 15 | 4.3 | 11.3 | 0.00 | 0.00 | 0.00 | 51 | 1009.5 |
| 20260506132705 | 60 | 53 | 6.1 | 11.3 | 0.00 | 0.00 | 0.00 | 51 | 1009.5 |
| 20260506131705 | 61 | 55 | 6.1 | 11.3 | 0.00 | 0.00 | 0.00 | 52 | 1009.5 |
| 20260506130706 | 60 | 68 | 4.3 | 11.3 | 0.00 | 0.00 | 0.00 | 54 | 1009.4 |
| 20260506130205 | 60 | 17 | 1.7 | 8.7 | 0.00 | 0.00 | 0.00 | 54 | 1009.3 |
| 20260506125705 | 60 | 17 | 4.3 | 11.3 | 0.00 | 0.00 | 0.00 | 54 | 1009.4 |
| 20260506125205 | 60 | 339 | 3.5 | 10.4 | 0.00 | 0.00 | 0.00 | 55 | 1009.4 |
| 20260506124705 | 60 | 57 | 5.2 | 10.4 | 0.00 | 0.00 | 0.00 | 54 | 1009.4 |
| 20260506123705 | 60 | 28 | 7.0 | 13.0 | 0.00 | 0.00 | 0.00 | 55 | 1009.4 |
| 20260506123205 | 60 | 37 | 5.2 | 11.3 | 0.00 | 0.00 | 0.00 | 55 | 1009.5 |
| 20260506122204 | 60 | 41 | 5.2 | 10.4 | 0.00 | 0.00 | 0.00 | 53 | 1009.4 |
| 20260506121205 | 60 | 64 | 6.1 | 11.3 | 0.00 | 0.00 | 0.00 | 53 | 1009.4 |
| 20260506120706 | 60 | 38 | 4.3 | 10.4 | 0.00 | 0.00 | 0.00 | 55 | 1009.5 |
| 20260506115705 | 60 | 64 | 6.1 | 10.4 | 0.00 | 0.00 | 0.00 | 54 | 1009.4 |
| 20260506114205 | 59 | 29 | 4.3 | 13.0 | 0.00 | 0.00 | 0.00 | 57 | 1009.5 |
| 20260506113205 | 59 | 9 | 6.1 | 13.0 | 0.00 | 0.00 | 0.00 | 58 | 1009.6 |
| 20260506112705 | 59 | 47 | 6.1 | 8.7 | 0.00 | 0.00 | 0.00 | 57 | 1009.6 |
| 20260506112205 | 59 | 50 | 7.0 | 10.4 | 0.00 | 0.00 | 0.00 | 57 | 1009.7 |
| 20260506111705 | 59 | 7 | 6.1 | 13.9 | 0.00 | 0.00 | 0.00 | 59 | 1009.7 |
| 20260506111205 | 59 | 41 | 7.8 | 12.2 | 0.00 | 0.00 | 0.00 | 58 | 1009.7 |
| 20260506110205 | 58 | 35 | 7.0 | 11.3 | 0.00 | 0.00 | 0.00 | 60 | 1009.7 |
| 20260506105705 | 58 | 31 | 7.0 | 11.3 | 0.00 | 0.00 | 0.00 | 59 | 1009.7 |
| 20260506105205 | 58 | 68 | 6.1 | 11.3 | 0.00 | 0.00 | 0.00 | 59 | 1009.7 |
| 20260506104705 | 58 | 71 | 6.1 | 13.0 | 0.00 | 0.00 | 0.00 | 59 | 1009.7 |
| 20260506104205 | 58 | 8 | 3.5 | 10.4 | 0.00 | 0.00 | 0.00 | 61 | 1009.7 |
| 20260506103705 | 58 | 54 | 6.1 | 13.0 | 0.00 | 0.00 | 0.00 | 60 | 1009.8 |
| 20260506102705 | 58 | 55 | 6.1 | 11.3 | 0.00 | 0.00 | 0.00 | 60 | 1009.9 |
| 20260506102205 | 58 | 26 | 6.1 | 10.4 | 0.00 | 0.00 | 0.00 | 59 | 1009.8 |
| 20260506101705 | 58 | 49 | 4.3 | 8.7 | 0.00 | 0.00 | 0.00 | 60 | 1009.9 |
| 20260506101205 | 58 | 37 | 7.8 | 12.2 | 0.00 | 0.00 | 0.00 | 59 | 1009.8 |
| 20260506100705 | 58 | 56 | 5.2 | 11.3 | 0.00 | 0.00 | 0.00 | 59 | 1009.8 |
| 20260506100205 | 58 | 15 | 6.1 | 10.4 | 0.00 | 0.00 | 0.00 | 59 | 1009.9 |
| 20260506095706 | 58 | 52 | 6.1 | 10.4 | 0.00 | 0.00 | 0.00 | 58 | 1009.9 |
| 20260506095205 | 58 | 29 | 8.7 | 13.0 | 0.00 | 0.00 | 0.00 | 58 | 1009.9 |
| 20260506094705 | 58 | 99 | 5.2 | 10.4 | 0.00 | 0.00 | 0.00 | 58 | 1009.9 |
| 20260506094205 | 57 | 36 | 4.3 | 11.3 | 0.00 | 0.00 | 0.00 | 59 | 1009.9 |
| 20260506093705 | 57 | 71 | 6.1 | 12.2 | 0.00 | 0.00 | 0.00 | 59 | 1010.0 |